• în Republica Moldova
  • Lista ţărilor
  • Pe 7 zile
  • Temperatura apei
  • Hartă satelitară
  • Meteo pe hartă
  • Widget-uri
  • user-avatar
    Intrare

    Meteo pe oră la Wiktoria

    Astăzi, 21 Februarie, Marţi

    Timp Temperatura Precipitaţii Vânt Presiune Umiditate
    00:00 +12°C° 0 mm 1 m/s 752 mmHg 74%
    01:00 +11°C° 0 mm 1 m/s 752 mmHg 77%
    02:00 +11°C° 0 mm 1 m/s 752 mmHg 80%
    03:00 +10°C° 0 mm 1 m/s 753 mmHg 84%
    04:00 +9°C° 0 mm 1 m/s 752 mmHg 89%
    05:00 +10°C° 0 mm 1 m/s 753 mmHg 85%
    06:00 +11°C° 0 mm 1 m/s 753 mmHg 81%
    07:00 +12°C° 0 mm 1 m/s 753 mmHg 77%
    08:00 +14°C° 0 mm 0 m/s 753 mmHg 63%
    09:00 +18°C° 0 mm 0 m/s 753 mmHg 49%
    10:00 +22°C° 0 mm 0 m/s 754 mmHg 35%
    11:00 +24°C° 0 mm 0 m/s 753 mmHg 30%
    12:00 +26°C° 0 mm 0 m/s 753 mmHg 25%
    13:00 +28°C° 0 mm 0 m/s 752 mmHg 20%
    14:00 +28°C° 0 mm 0 m/s 752 mmHg 19%
    15:00 +28°C° 0 mm 0 m/s 751 mmHg 18%
    16:00 +28°C° 0 mm 0 m/s 751 mmHg 17%
    17:00 +25°C° 0 mm 0 m/s 751 mmHg 24%
    18:00 +22°C° 0 mm 0 m/s 751 mmHg 30%
    19:00 +21°C° 0 mm 1 m/s 751 mmHg 36%
    20:00 +20°C° 0 mm 1 m/s 751 mmHg 37%
    21:00 +19°C° 0 mm 1 m/s 751 mmHg 39%
    22:00 +16°C° 0 mm 1 m/s 751 mmHg 40%
    23:00 +16°C° 0 mm 1 m/s 751 mmHg 40%

    Mâine, 22 Februarie, Miercuri

    Timp Temperatura Precipitaţii Vânt Presiune Umiditate
    00:00 +16°C° 0 mm 1 m/s 751 mmHg 40%
    01:00 +16°C° 0 mm 1 m/s 751 mmHg 40%
    02:00 +16°C° 0 mm 1 m/s 751 mmHg 42%
    03:00 +15°C° 0 mm 1 m/s 750 mmHg 43%
    04:00 +15°C° 0 mm 1 m/s 750 mmHg 44%
    05:00 +16°C° 0 mm 1 m/s 750 mmHg 47%
    06:00 +16°C° 0 mm 2 m/s 750 mmHg 50%
    07:00 +17°C° 0 mm 2 m/s 750 mmHg 53%
    08:00 +20°C° 0 mm 2 m/s 750 mmHg 48%
    09:00 +24°C° 0 mm 2 m/s 750 mmHg 43%
    10:00 +27°C° 0 mm 3 m/s 750 mmHg 38%
    11:00 +29°C° 0 mm 3 m/s 749 mmHg 31%
    12:00 +31°C° 0 mm 3 m/s 749 mmHg 24%
    13:00 +34°C° 0 mm 3 m/s 748 mmHg 17%
    14:00 +35°C° 0 mm 3 m/s 747 mmHg 15%
    15:00 +36°C° 0 mm 3 m/s 747 mmHg 13%
    16:00 +37°C° 0 mm 3 m/s 746 mmHg 11%
    17:00 +35°C° 0 mm 3 m/s 746 mmHg 14%
    18:00 +31°C° 0 mm 2 m/s 745 mmHg 17%
    19:00 +29°C° 0 mm 1 m/s 745 mmHg 20%
    20:00 +28°C° 0 mm 1 m/s 746 mmHg 21%
    21:00 +27°C° 0 mm 1 m/s 746 mmHg 21%
    22:00 +26°C° 0 mm 1 m/s 747 mmHg 21%
    23:00 +24°C° 0 mm 1 m/s 747 mmHg 24%

    Poimâine, 23 Februarie, Joi

    Timp Temperatura Precipitaţii Vânt Presiune Umiditate
    00:00 +23°C° 0 mm 1 m/s 747 mmHg 27%
    01:00 +22°C° 0 mm 1 m/s 747 mmHg 29%
    02:00 +21°C° 0 mm 1 m/s 748 mmHg 36%
    03:00 +19°C° 0 mm 1 m/s 748 mmHg 43%
    04:00 +18°C° 0 mm 1 m/s 748 mmHg 50%
    05:00 +19°C° 0 mm 1 m/s 749 mmHg 50%
    06:00 +19°C° 0 mm 1 m/s 750 mmHg 51%
    07:00 +20°C° 0 mm 1 m/s 750 mmHg 52%
    08:00 +23°C° 0 mm 1 m/s 751 mmHg 44%
    09:00 +26°C° 0 mm 1 m/s 751 mmHg 36%
    10:00 +29°C° 0 mm 1 m/s 751 mmHg 28%
    11:00 +31°C° 0 mm 1 m/s 751 mmHg 25%
    12:00 +32°C° 0 mm 1 m/s 751 mmHg 22%
    13:00 +35°C° 0 mm 2 m/s 750 mmHg 19%
    14:00 +35°C° 0 mm 2 m/s 750 mmHg 19%
    15:00 +35°C° 0 mm 2 m/s 750 mmHg 18%
    16:00 +35°C° 0 mm 2 m/s 749 mmHg 18%
    17:00 +32°C° 0 mm 2 m/s 750 mmHg 23%
    18:00 +30°C° 0 mm 2 m/s 750 mmHg 27%
    19:00 +28°C° 0 mm 2 m/s 751 mmHg 32%
    20:00 +26°C° 0 mm 2 m/s 751 mmHg 41%
    21:00 +24°C° 0 mm 2 m/s 752 mmHg 50%
    22:00 +21°C° 0 mm 2 m/s 753 mmHg 59%
    23:00 +20°C° 0 mm 2 m/s 753 mmHg 64%

    24 Februarie, Vineri

    Timp Temperatura Precipitaţii Vânt Presiune Umiditate
    00:00 +19°C° 0 mm 2 m/s 753 mmHg 70%
    01:00 +18°C° 0 mm 2 m/s 752 mmHg 76%
    02:00 +18°C° 0 mm 2 m/s 753 mmHg 77%
    03:00 +17°C° 0 mm 2 m/s 753 mmHg 79%
    04:00 +17°C° 0 mm 2 m/s 753 mmHg 81%
    05:00 +17°C° 0 mm 2 m/s 753 mmHg 79%
    06:00 +17°C° 0 mm 2 m/s 753 mmHg 78%
    07:00 +17°C° 0 mm 2 m/s 754 mmHg 77%
    08:00 +19°C° 0 mm 2 m/s 754 mmHg 68%
    09:00 +21°C° 0 mm 2 m/s 754 mmHg 59%
    10:00 +24°C° 0 mm 2 m/s 754 mmHg 50%
    11:00 +25°C° 0 mm 2 m/s 754 mmHg 44%
    12:00 +27°C° 0 mm 2 m/s 753 mmHg 39%
    13:00 +28°C° 0 mm 3 m/s 753 mmHg 33%
    14:00 +28°C° 0 mm 3 m/s 753 mmHg 33%
    15:00 +28°C° 0 mm 3 m/s 752 mmHg 32%
    16:00 +28°C° 0 mm 3 m/s 752 mmHg 31%
    17:00 +25°C° 0 mm 3 m/s 752 mmHg 37%
    18:00 +22°C° 0 mm 4 m/s 753 mmHg 43%
    19:00 +20°C° 0 mm 4 m/s 753 mmHg 48%
    20:00 +18°C° 0 mm 4 m/s 754 mmHg 53%
    21:00 +17°C° 0 mm 3 m/s 754 mmHg 58%
    22:00 +16°C° 0 mm 3 m/s 755 mmHg 63%
    23:00 +14°C° 0 mm 3 m/s 755 mmHg 65%

    25 Februarie, Sâmbătă

    Timp Temperatura Precipitaţii Vânt Presiune Umiditate
    00:00 +14°C° 0 mm 3 m/s 755 mmHg 66%
    01:00 +14°C° 0 mm 3 m/s 754 mmHg 68%
    02:00 +13°C° 0 mm 3 m/s 754 mmHg 69%
    03:00 +13°C° 0 mm 3 m/s 754 mmHg 70%
    04:00 +13°C° 0 mm 3 m/s 754 mmHg 71%
    05:00 +13°C° 0 mm 3 m/s 755 mmHg 70%
    06:00 +14°C° 0 mm 3 m/s 755 mmHg 69%
    07:00 +14°C° 0 mm 3 m/s 755 mmHg 69%
    08:00 +17°C° 0 mm 3 m/s 755 mmHg 61%
    09:00 +19°C° 0 mm 3 m/s 755 mmHg 52%
    10:00 +20°C° 0 mm 3 m/s 756 mmHg 44%
    11:00 +22°C° 0 mm 3 m/s 755 mmHg 39%
    12:00 +24°C° 0 mm 3 m/s 755 mmHg 35%
    13:00 +25°C° 0 mm 3 m/s 754 mmHg 30%
    14:00 +26°C° 0 mm 3 m/s 754 mmHg 28%
    15:00 +26°C° 0 mm 3 m/s 753 mmHg 27%
    16:00 +26°C° 0 mm 4 m/s 753 mmHg 25%
    17:00 +25°C° 0 mm 3 m/s 754 mmHg 29%
    18:00 +22°C° 0 mm 3 m/s 754 mmHg 34%
    19:00 +21°C° 0 mm 3 m/s 754 mmHg 38%
    20:00 +19°C° 0 mm 3 m/s 755 mmHg 45%
    21:00 +18°C° 0 mm 2 m/s 755 mmHg 53%
    22:00 +17°C° 0 mm 2 m/s 755 mmHg 61%
    23:00 +16°C° 0 mm 2 m/s 755 mmHg 67%

    26 Februarie, Duminică

    Timp Temperatura Precipitaţii Vânt Presiune Umiditate
    00:00 +15°C° 0 mm 2 m/s 755 mmHg 73%
    01:00 +14°C° 0 mm 1 m/s 755 mmHg 79%
    02:00 +13°C° 0 mm 1 m/s 755 mmHg 82%
    03:00 +13°C° 0 mm 1 m/s 755 mmHg 86%
    04:00 +12°C° 0 mm 1 m/s 755 mmHg 89%
    05:00 +13°C° 0 mm 1 m/s 755 mmHg 87%
    06:00 +13°C° 0 mm 1 m/s 756 mmHg 85%
    07:00 +13°C° 0 mm 1 m/s 756 mmHg 83%
    08:00 +18°C° 0 mm 1 m/s 756 mmHg 68%
    09:00 +21°C° 0 mm 1 m/s 756 mmHg 54%
    10:00 +25°C° 0 mm 1 m/s 756 mmHg 40%
    11:00 +27°C° 0 mm 1 m/s 755 mmHg 35%
    12:00 +29°C° 0 mm 1 m/s 755 mmHg 30%
    13:00 +30°C° 0 mm 0 m/s 754 mmHg 25%
    14:00 +32°C° 0 mm 1 m/s 754 mmHg 24%
    15:00 +32°C° 0 mm 1 m/s 753 mmHg 22%
    16:00 +32°C° 0 mm 1 m/s 753 mmHg 21%
    17:00 +29°C° 0 mm 1 m/s 753 mmHg 26%
    18:00 +27°C° 0 mm 1 m/s 753 mmHg 30%
    19:00 +25°C° 0 mm 1 m/s 753 mmHg 35%
    20:00 +23°C° 0 mm 1 m/s 754 mmHg 40%
    21:00 +22°C° 0 mm 1 m/s 754 mmHg 44%
    22:00 +21°C° 0 mm 1 m/s 755 mmHg 49%
    23:00 +20°C° 0 mm 1 m/s 755 mmHg 54%
    Arată mai mult